Home   Weather   Langfang   Past weeks

Flag for China Past Weather in Langfang, Hebei, China — Yesterday and Last 2 Weeks

45 °F


Feels Like: 45 °F
Forecast: 36 / 57 °F
Wind: 1 mph from North

Location: Beijing Airport

Current Time: Oct 24, 2016 at 12:20:17 AM

Latest Report: Oct 23, 2016 at 11:30 PM

Visibility: 10 mi

Pressure: 30.15 "Hg

Humidity: 93%

Dew Point: 43 °F

Location of LangfangLocation

Past Weather in Langfang — Graph


Langfang Temperature Yesterday

Maximum temperature yesterday: 61 °F (at 2:30 PM)
Minimum temperature yesterday: 41 °F (at 5:30 AM)
Average temperature yesterday: 50 °F

High & Low Weather Summary for the Past Weeks

High72 °F (Oct 17, 1:30 PM)100% (Oct 9, 3:30 AM)30.33 "Hg (Oct 9, 3:30 AM)
Low39 °F (Oct 9, 3:00 AM)27% (Oct 9, 4:30 PM)29.98 "Hg (Oct 10, 2:30 PM)
Average56 °F80%30.14 "Hg
* Reported Oct 8 11:00 PM — Oct 23 11:00 PM, Langfang, Weather by CustomWeather, © 2016

Note: Actual official high and low records may vary slightly from our data, if they occured in-between our weather recording intervals... More about our weather records


Langfang Weather History for the Previous 24 Hours

Scroll right to see more
Time TempWeatherWind HumidityBarometerVisibility
11:00 PM
Sun, Oct 23
45 °FClear.No wind93%30.15 "Hg10 mi
10:30 PM46 °FClear.No wind87%30.15 "Hg10 mi
10:00 PM48 °FClear.1 mph87%30.15 "Hg10 mi
9:30 PM50 °FClear.1 mph82%30.15 "Hg10 mi
9:00 PM50 °FClear.1 mph82%30.15 "Hg10 mi
8:30 PM50 °FClear.1 mph82%30.15 "Hg10 mi
8:00 PM50 °FClear.1 mph88%30.15 "Hg10 mi
7:30 PM52 °FClear.1 mph82%30.15 "Hg10 mi
7:00 PM54 °FClear.1 mph67%30.15 "Hg10 mi
6:30 PM54 °FClear.3 mph63%30.15 "Hg10 mi
6:00 PM54 °FClear.1 mph63%30.15 "Hg10 mi
5:30 PM54 °FClear.1 mph72%30.12 "Hg10 mi
5:00 PM54 °FSunny.1 mph72%30.12 "Hg10 mi
4:30 PM55 °FSunny.1 mph51%30.12 "Hg10 mi
4:00 PM59 °FSunny.1 mph36%30.15 "Hg10 mi
3:30 PM59 °FSunny.3 mph34%30.15 "Hg10 mi
3:00 PM59 °FPassing clouds.3 mph34%30.15 "HgN/A
2:30 PM61 °FSunny.1 mph31%30.15 "Hg10 mi
2:00 PM59 °FPassing clouds.3 mph34%30.15 "HgN/A
1:30 PM59 °FSunny.3 mph36%30.18 "Hg10 mi
1:00 PM59 °FPassing clouds.3 mph39%30.18 "HgN/A
12:30 PM59 °FPassing clouds.6 mph39%30.21 "HgN/A
12:00 PM57 °FPassing clouds.8 mph44%30.21 "HgN/A
11:30 AM59 °FPassing clouds.6 mph39%30.24 "HgN/A
11:00 AM57 °FPassing clouds.3 mph41%30.24 "HgN/A
10:30 AM54 °FPassing clouds.3 mph47%30.27 "HgN/A
10:00 AM54 °FSunny.3 mph44%30.27 "Hg10 mi
9:30 AM52 °FPassing clouds.6 mph50%30.27 "HgN/A
9:00 AM50 °FPassing clouds.6 mph54%30.27 "HgN/A
8:30 AM48 °FPassing clouds.6 mph58%30.27 "HgN/A
8:00 AM46 °FPassing clouds.3 mph62%30.27 "HgN/A
7:30 AM41 °FSunny.1 mph87%30.27 "Hg10 mi
7:00 AM41 °FSunny.3 mph87%30.27 "Hg10 mi
6:30 AM41 °FClear.3 mph87%30.27 "Hg10 mi
6:00 AM41 °FClear.1 mph87%30.24 "Hg10 mi
5:30 AM41 °FClear.1 mph93%30.24 "Hg10 mi
5:00 AM43 °FClear.1 mph93%30.24 "Hg10 mi
4:30 AM43 °FClear.1 mph87%30.24 "Hg10 mi
4:00 AM43 °FClear.1 mph87%30.27 "Hg10 mi
3:30 AM45 °FClear.1 mph87%30.24 "Hg10 mi
3:00 AM45 °FClear.No wind87%30.27 "Hg10 mi
2:30 AM45 °FClear.1 mph87%30.27 "Hg10 mi
2:00 AM46 °FClear.1 mph76%30.27 "Hg10 mi
1:30 AM45 °FClear.1 mph87%30.27 "Hg10 mi
1:00 AM45 °FClear.No wind87%30.27 "Hg10 mi
12:30 AM46 °FClear.3 mph82%30.27 "Hg10 mi
12:00 AM46 °FClear.1 mph82%30.27 "Hg10 mi
Weather by CustomWeather, © 2016

See weather overviewHow to use our weather pages